Location: Observatoire
(46.1952°N, 5.3391°E)
Time: 20:43:49
(UTC+02:00)

DX 1 - Visible Passes

Search period start: 22 April 2024 00:00
Search period end: 02 May 2024 00:00
Orbit: 610 x 620 km, 98.3° (Epoch: 22 April)

Date Brightness Start Highest point End Pass type
(mag) Time Alt. Az. Time Alt. Az. Time Alt. Az.
22 Apr ? 01:17:28 10° NNE 01:19:28 26° NNE 01:19:28 26° NNE visible
22 Apr ? 02:54:24 10° NNW 02:56:32 17° NW 02:56:32 17° NW visible
23 Apr ? 01:33:08 10° NNE 01:35:28 31° NNE 01:35:28 31° NNE visible
23 Apr ? 03:10:51 10° NNW 03:12:32 13° NW 03:12:32 13° NW visible
24 Apr ? 01:48:51 10° N 01:51:27 35° N 01:51:27 35° N visible
25 Apr ? 00:29:42 10° NE 00:30:21 12° ENE 00:30:21 12° ENE visible
25 Apr ? 02:04:39 10° N 02:07:25 35° NNW 02:07:25 35° NNW visible
26 Apr ? 00:44:52 10° NE 00:46:19 17° NE 00:46:19 17° NE visible
26 Apr ? 02:20:30 10° N 02:23:23 30° NW 02:23:23 30° NW visible
27 Apr ? 01:00:14 10° NNE 01:02:16 23° NE 01:02:16 23° NE visible
27 Apr ? 02:36:27 10° N 02:39:19 24° NW 02:39:19 24° NW visible
28 Apr ? 01:15:43 10° NNE 01:18:12 31° NE 01:18:12 31° NE visible
28 Apr ? 02:52:31 10° NNW 02:55:15 19° WNW 02:55:15 19° WNW visible
29 Apr ? 01:31:17 10° NNE 01:34:07 39° NNE 01:34:07 39° NNE visible
29 Apr ? 03:08:49 10° NNW 03:11:01 14° WNW 03:11:10 14° WNW visible
30 Apr ? 01:46:56 10° NNE 01:50:01 46° N 01:50:01 46° N visible
30 Apr ? 03:26:23 10° NW 03:26:27 10° NW 03:26:32 10° WNW visible
01 May ? 00:27:53 10° NE 00:28:51 13° ENE 00:28:51 13° ENE visible
01 May ? 02:02:38 10° N 02:05:55 44° NNW 02:05:55 44° NNW visible
